Regional Weather Roundup
Issued by NWS

Home | Current Version | Previous Version | Text Only | Print | Product List | Glossary Off
Versions: 1 2 3 4 5 6 7 8 9 10 11 12 13 14 15 16 17 18 19 20 21 22 23 24 25 26 27 28 29 30 31 32 33 34 35 36 37 38 39 40 41 42 43 44 45 46 47 48 49 50

000
ASUS43 KOAX 250302
RWRNE

WEATHER ROUNDUP FOR NEBRASKA
NATIONAL WEATHER SERVICE OMAHA NE
900 PM CST SAT JAN 24 2015

NOTES: SATELLITE DATA IS BEING USED TO AUGMENT CLOUD COVER ABOVE
       12000 FEET.
       "FAIR" INDICATES FEW OR NO CLOUDS BELOW 12,000 FEET WITH NO
       SIGNIFICANT WEATHER AND/OR OBSTRUCTIONS TO VISIBILITY.

  * THESE STATIONS DO NOT REPORT WEATHER SUCH AS RAIN...SNOW OR FOG.

NEZ001>004-019>022-054>056-250400-
NEBRASKA PANHANDLE

CITY           SKY/WX    TMP DP  RH WIND       PRES   REMARKS
SCOTTSBLUFF    CLOUDY    38 N/A N/A NW22G29   30.04R WCI  27
ALLIANCE       MOCLDY    38  30  73 NW24G33   29.97R WCI  27
CHADRON        CLEAR     38  31  76 NW17G25   30.00R WCI  28
SIDNEY         CLOUDY    38  32  79 NW31G38   30.04F WCI  25
$$

NEZ057>060-069>072-079>082-250400-
SOUTHWEST NEBRASKA

CITY           SKY/WX    TMP DP  RH WIND       PRES   REMARKS
NORTH PLATTE   MOCLDY    41  35  79 NW15      29.87R
IMPERIAL       CLOUDY    43  34  70 NW23G37   29.92S
MCCOOK         MOCLDY    48  31  51 NW17G24   29.87S
$$

NEZ005>010-023>029-035>040-094-250400-
NORTH CENTRAL NEBRASKA

CITY           SKY/WX    TMP DP  RH WIND       PRES   REMARKS
VALENTINE      CLOUDY    43  33  68 NW25G37   29.79R
BROKEN BOW     CLOUDY    48  35  60 NW28G39   29.77R
ORD            MOCLDY    46  36  68 NW26G33   29.72R
$$

NEZ041-046>049-061>064-073>077-083>087-250400-
SOUTH CENTRAL NEBRASKA

CITY           SKY/WX    TMP DP  RH WIND       PRES   REMARKS
GRAND ISLAND   MOCLDY    45  36  70 W15       29.72S
HASTINGS       CLOUDY    44  31  60 W12       29.72F
KEARNEY *      MOCLDY    45  34  65 NW16      29.76R
$$

NEZ011>018-030>034-042>045-250400-
NORTHEAST NEBRASKA

CITY           SKY/WX    TMP DP  RH WIND       PRES   REMARKS
NORFOLK        MOCLDY    47  38  71 NW22G38   29.62R
COLUMBUS *     CLOUDY    46  37  71 NW17G26   29.66S
TEKAMAH        CLOUDY    45  38  76 W14       29.58F
$$

NEZ050>053-065>068-078-088>093-250400-
SOUTHEAST NEBRASKA

CITY           SKY/WX    TMP DP  RH WIND       PRES   REMARKS
LINCOLN        CLOUDY    47  41  80 W12       29.66F
OMAHA EPPLEY   LGT RAIN  45  38  76 SW5       29.61F
FALLS CITY     LGT RAIN  47  38  71 W13       29.68F
$$

NEZ044-045-051>053-067-250400-
OMAHA AREA

CITY           SKY/WX    TMP DP  RH WIND       PRES   REMARKS
OMAHA EPPLEY   LGT RAIN  45  38  76 SW5       29.61F
OFFUTT AFB     LGT RAIN  45  39  79 W7        29.62F
$$


USA.gov is the U.S. government's official web portal to all federal, state and local government web resources and services.